User: anonymous   Login
Location: Bothwell
(42.3833°S, 147.0000°E)
Time: 09:26:52
(UTC+10:00)
Language:

NANOSAT C BR1 - Orbit

View from above orbital plane
View from above orbital plane
View from above satellite
View from above satellite

Ground track
Ground track

The orbit data is extracted from the following two-line orbital elements,

1 40024U 14033Q   24104.87744058  .00011133  00000-0  86419-3 0  9995
2 40024  98.0553  74.4183 0008382  38.0672 322.1142 15.01507087534119
Epoch (UTC): 13 April 2024 21:03:30
Eccentricity: 0.0008382
inclination: 98.0553°
perigee height: 556 km
apogee height: 568 km
right ascension of ascending node: 74.4183°
argument of perigee: 38.0672°
revolutions per day: 15.01507087
mean anomaly at epoch: 322.1142°
orbit number at epoch: 53411

The dashed part of the orbit path shows where the satellite is in the earth's shadow,  

DLR